Barrow, AK

2:17 AM AKDT on August 24, 2016 (GMT -0800)
Nuiqsut

Weather History for PAQT - December, 2011

Change the Weather History Date:

Sunday, December 18, 2011

  Actual Average (PAKU) Record (PAKU)
Temperature  
Mean Temperature -12 °F -  
Max Temperature -9 °F 0 °F 30 °F (2008)
Min Temperature -16 °F -8 °F -32 °F (1991)
Degree Days  
Heating Degree Days 78    
Moisture  
Dew Point -16 °F    
Average Humidity 83    
Maximum Humidity 92    
Minimum Humidity 77    
Precipitation  
Precipitation 0.00 in - - ()
Sea Level Pressure  
Sea Level Pressure 29.58 in    
Wind  
Wind Speed 20 mph (NE)    
Max Wind Speed 25 mph    
Max Gust Speed 30 mph    
Visibility 3 miles    
Events      
Averages and records for this station are not official NWS values.
T = Trace of Precipitation, MM = Missing Value Source: NWS Daily Summary

Daily Weather History Graph

Daily Weather History Graph

Search for Another Location

Airport or City:

Trip Planner

Search our weather history database for the weather conditions in past years. The results will help you decide how hot, cold, wet, or windy it might be!

Date:

Astronomy

Dec. 31, 1969 Rise Set
Actual Time Sun does not set Sun does not set
Civil Twilight 11:00 AM AKST 3:00 PM AKST
Nautical Twilight 9:09 AM AKST 4:51 PM AKST
Astronomical Twilight 7:48 AM AKST 6:12 PM AKST
Moon 2:19 AM AKST (12/18) 12:08 PM AKST (12/18)
Length of Visible Light 4h 00m
Length of Day
0h 00m
Last Quarter, 41% of the Moon is Illuminated
Dec 18
Last Quarter
Dec 24
New
Dec 31
First Quarter
Jan 8
Full
Jan 16
Last Quarter

Hourly Weather History & Observations

Time (AKST) Temp. Windchill Dew Point Humidity Pressure Visibility Wind Dir Wind Speed Gust Speed Precip Events Conditions
12:41 AM -13.0 °F -39.4 °F -16.6 °F 84% 29.69 in 2.5 mi NE 20.7 mph - N/A   Overcast
12:46 AM -13.0 °F -39.4 °F -16.6 °F 84% 29.69 in 3.0 mi NE 20.7 mph - N/A   Overcast
12:53 AM -13.0 °F -40.0 °F -17.0 °F 82% 29.70 in 3.0 mi NE 21.9 mph - N/A   Overcast
1:53 AM -11.9 °F -38.0 °F -16.1 °F 82% 29.70 in 2.5 mi NE 20.7 mph - N/A   Overcast
1:56 AM -11.2 °F -37.6 °F -16.6 °F 77% 29.69 in 3.0 mi NE 21.9 mph - N/A   Overcast
2:35 AM -11.2 °F -37.0 °F -16.6 °F 77% 29.69 in 2.5 mi NE 20.7 mph - N/A   Overcast
3:53 AM -11.0 °F -35.6 °F -15.0 °F 83% 29.68 in 2.0 mi NE 18.4 mph 29.9 mph N/A   Overcast
4:53 AM -11.0 °F -36.2 °F -15.0 °F 83% 29.65 in 2.5 mi NE 19.6 mph - N/A   Overcast
5:00 AM -11.2 °F -35.8 °F -14.8 °F 84% 29.65 in 3.0 mi NE 18.4 mph - N/A   Overcast
5:53 AM -11.0 °F -37.4 °F -15.0 °F 83% 29.63 in 3.0 mi NE 21.9 mph 28.8 mph N/A   Mostly Cloudy
6:12 AM -11.2 °F -36.4 °F -14.8 °F 84% 29.63 in 3.0 mi NE 19.6 mph - N/A   Mostly Cloudy
6:53 AM -11.0 °F -35.6 °F -15.0 °F 83% 29.62 in 4.0 mi NE 18.4 mph - N/A   Mostly Cloudy
7:11 AM -11.2 °F -35.8 °F -14.8 °F 84% 29.62 in 5.0 mi NE 18.4 mph - N/A   Mostly Cloudy
7:24 AM -11.2 °F -35.8 °F -14.8 °F 84% 29.63 in 5.0 mi NE 18.4 mph - N/A   Mostly Cloudy
7:53 AM -11.0 °F -34.9 °F -15.0 °F 83% 29.62 in 5.0 mi NE 17.3 mph - N/A   Mostly Cloudy
8:53 AM -9.9 °F -36.5 °F -14.1 °F 82% 29.61 in 6.0 mi NE 23.0 mph - N/A   Overcast
9:53 AM -9.0 °F -34.2 °F -14.1 °F 79% 29.61 in 4.0 mi NE 20.7 mph - N/A   Haze
10:07 AM -9.4 °F -34.7 °F -13.0 °F 84% 29.60 in 4.0 mi NE 20.7 mph - N/A   Overcast
10:19 AM -9.4 °F -35.2 °F -13.0 °F 84% 29.59 in 3.0 mi NE 21.9 mph - N/A   Overcast
10:31 AM -9.4 °F -36.3 °F -13.0 °F 84% 29.59 in 2.5 mi NE 24.2 mph - N/A   Overcast
10:53 AM -9.0 °F -35.3 °F -13.0 °F 83% 29.58 in 2.0 mi NE 23.0 mph - N/A   Overcast
11:49 AM -9.4 °F -35.8 °F -13.0 °F 84% 29.58 in 1.8 mi NE 23.0 mph - N/A   Overcast
11:53 AM -9.0 °F -34.8 °F -13.0 °F 83% 29.57 in 1.5 mi NE 21.9 mph - N/A   Overcast
12:53 PM -9.9 °F -34.2 °F -14.1 °F 82% 29.58 in 1.5 mi NE 18.4 mph - N/A   Overcast
1:34 PM -9.4 °F -33.5 °F -14.8 °F 77% 29.57 in 2.0 mi NE 18.4 mph 26.5 mph N/A   Overcast
1:53 PM -9.9 °F -35.4 °F -14.1 °F 82% 29.56 in 1.8 mi NE 20.7 mph - N/A   Overcast
2:07 PM -11.2 °F -37.0 °F -14.8 °F 84% 29.56 in 2.0 mi NE 20.7 mph - N/A   Overcast
2:17 PM -11.2 °F -39.2 °F -14.8 °F 84% 29.56 in 1.8 mi NE 25.3 mph 29.9 mph N/A   Overcast
2:24 PM -11.2 °F -38.2 °F -14.8 °F 84% 29.55 in 2.0 mi NE 23.0 mph - N/A   Overcast
2:53 PM -11.9 °F -38.6 °F -16.1 °F 82% 29.54 in 2.0 mi NE 21.9 mph - N/A   Overcast
3:41 PM -13.0 °F -38.8 °F -16.6 °F 84% 29.52 in 1.8 mi NE 19.6 mph 27.6 mph N/A   Overcast
3:53 PM -13.0 °F -37.5 °F -17.0 °F 82% 29.52 in 1.8 mi NE 17.3 mph 27.6 mph N/A   Overcast
4:04 PM -14.8 °F -40.5 °F -16.6 °F 92% 29.51 in 2.0 mi NE 18.4 mph - N/A   Overcast
4:33 PM -14.8 °F -40.5 °F -18.4 °F 84% 29.52 in 3.0 mi NE 18.4 mph 26.5 mph N/A   Overcast
4:53 PM -14.1 °F -39.6 °F -18.0 °F 82% 29.53 in 3.0 mi NE 18.4 mph - N/A   Overcast
5:53 PM -14.1 °F -36.6 °F -18.9 °F 79% 29.51 in 4.0 mi NNE 13.8 mph 23.0 mph N/A   Haze
6:13 PM -14.8 °F -37.5 °F -18.4 °F 84% 29.51 in 5.0 mi NNE 13.8 mph 23.0 mph N/A   Scattered Clouds
6:42 PM -14.8 °F -38.3 °F -18.4 °F 84% 29.50 in 4.0 mi NE 15.0 mph - N/A   Mostly Cloudy
6:53 PM -15.0 °F -39.3 °F -18.9 °F 82% 29.50 in 3.0 mi NE 16.1 mph - N/A   Overcast
7:42 PM -14.8 °F -39.8 °F -18.4 °F 84% 29.51 in 2.5 mi NE 17.3 mph - N/A   Overcast
7:53 PM -15.0 °F -38.5 °F -18.9 °F 82% 29.52 in 3.0 mi NE 15.0 mph - N/A   Overcast
8:53 PM -15.0 °F -36.8 °F -18.9 °F 82% 29.52 in 4.0 mi NNE 12.7 mph - N/A   Mostly Cloudy
9:27 PM -16.6 °F -40.6 °F -20.2 °F 84% 29.51 in 5.0 mi NNE 15.0 mph - N/A   Scattered Clouds
9:53 PM -16.1 °F -40.7 °F -20.0 °F 82% 29.52 in 4.0 mi NNE 16.1 mph - N/A   Clear
10:03 PM -16.6 °F -39.8 °F -20.2 °F 84% 29.52 in 4.0 mi NNE 13.8 mph - N/A   Partly Cloudy
10:37 PM -16.6 °F -39.8 °F -20.2 °F 84% 29.52 in 4.0 mi NNE 13.8 mph - N/A   Mostly Cloudy
10:53 PM -16.1 °F -39.1 °F -20.0 °F 82% 29.53 in 4.0 mi NNE 13.8 mph - N/A   Mostly Cloudy
11:04 PM -16.6 °F -37.9 °F -20.2 °F 84% 29.53 in 4.0 mi NNE 11.5 mph - N/A   Scattered Clouds